Location: McFarlands Corners
(41.4117°N, 81.3382°W)
Time: 00:45:37
(UTC+00:00)

Envisat - Visible Passes

Search period start: 08 October 2024 00:00
Search period end: 18 October 2024 00:00
Orbit: 762 x 764 km, 98.3° (Epoch: 07 October)

Date Brightness Start Highest point End Pass type
(mag) Time Alt. Az. Time Alt. Az. Time Alt. Az.
08 Oct 5.2 08:00:55 10° NNE 08:02:53 22° NE 08:02:53 22° NE visible
08 Oct 4.4 09:40:19 10° NNW 09:43:02 22° NW 09:43:02 22° NW visible
09 Oct 6.0 07:24:31 10° NE 07:24:50 11° NE 07:24:50 11° NE visible
09 Oct 4.2 09:02:14 10° N 09:04:59 31° N 09:04:59 31° N visible
10 Oct 4.8 08:24:41 10° NNE 08:26:55 26° NNE 08:26:55 26° NNE visible
10 Oct 4.8 10:05:12 10° NNW 10:07:04 15° NW 10:07:04 15° NW visible
11 Oct 5.6 07:47:41 10° NE 07:48:52 16° NE 07:48:52 16° NE visible
11 Oct 4.4 09:26:33 10° N 09:29:00 24° NNW 09:29:00 24° NNW visible
12 Oct 4.5 08:48:40 10° N 08:50:57 27° N 08:50:57 27° N visible
13 Oct 5.2 08:11:17 10° NNE 08:12:52 20° NNE 08:12:52 20° NNE visible
13 Oct 4.7 09:51:09 10° NNW 09:53:02 17° NW 09:53:02 17° NW visible
14 Oct 6.0 07:34:34 10° NE 07:34:49 11° NE 07:34:49 11° NE visible
14 Oct 4.6 09:12:51 10° N 09:14:57 23° NNW 09:14:57 23° NNW visible
15 Oct 4.9 08:35:09 10° NNE 08:36:53 22° NNE 08:36:53 22° NNE visible
15 Oct 5.0 10:16:24 10° NW 10:17:02 11° NW 10:17:02 11° NW visible
16 Oct 5.6 07:57:57 10° NNE 07:58:49 15° NE 07:58:49 15° NE visible
16 Oct 4.7 09:37:16 10° N 09:38:57 18° NNW 09:38:57 18° NNW visible
17 Oct 4.8 08:59:13 10° N 09:00:53 21° N 09:00:53 21° N visible
